Погода в Таволжанке

Украина / Харьковская область     49°50′50″N   37°46′21″E
темп.,
°C
ветер,
м/с
пор.,
м/с
влажн.,
%
обл.,
%
осадки,
мм/ч
давл.,
гПа
погр.,
м
19 апреля, пн
пн1900:00+9с2383100 0.8 101766
03:00+7всв118888 1.4 101611
06:00+7всв259299 0.4 1016139
09:00+11всв4471100 0.5 1015491
12:00+14юв2251100 0.7 10141382
15:00+15ю1245100 0.9 10131692
18:00+13сз336275 0.6 1013227
21:00+10св117596 0.8 101410
20 апреля, вт
вт2000:00+9всв228051 0.0 101333
03:00+9вюв388298 0.1 1011183
06:00+9в4887100 0.5 1010240
09:00+11в6979100 0.7 1009631
12:00+11всв61088100 1.1 1006699
15:00+10всв5990100 6.6 1002715
18:00+9с3594100 4.8 999313
21:00+7ссз4790100 7.4 1001456
21 апреля, ср
ср2100:00+7зюз4791100 0.0 1004300
03:00+9зюз5995100 0.4 1006515
06:00+8юз6109199 0.4 1008567
09:00+9юз698370 0.6 1011635
12:00+14юз7105166 0.8 10122057
15:00+14зюз8105187 0.9 10131902
18:00+12з586420 0.0 1015907
21:00+8з22757 0.0 101710
22 апреля, чт
чт2200:00+8ю22748 0.0 101811
03:00+7ююв227475 0.0 101823
06:00+8ю228099 0.1 101939
09:00+12ююз466677 0.3 1020561
12:00+15ююз565367 1.0 10201545
15:00+17ююз564787 3.0 10192206
18:00+15ююв245699 0.1 1019143
21:00+11ююв46765 0.1 1020108
23 апреля, пт
пт2300:00+9ююз22805 0.0 102020
03:00+8ю22845 0.3 102020
06:00+8ююз228631 0.0 102033
09:00+13ююз346872 0.0 1020413
12:00+17юз354463 0.2 10192293
15:00+16юз465086 0.3 10191533
18:00+15ю3756100 0.0 1018212
21:00+13ю366517 0.0 1018125